Chattanooga, TN

4:11 PM EDT on June 26, 2017 (GMT -0400)
Lovell

Weather History for KCHA - June, 2012

Change the Weather History Date:

Tuesday, June 26, 2012

  Actual Average Record
Temperature  
Mean Temperature 81 °F 79 °F  
Max Temperature 90 °F 89 °F 101 °F (1988)
Min Temperature 72 °F 68 °F 45 °F (1974)
Cooling Degree Days 16 14  
Month to date cooling degree days 296 289  
Year to date cooling degree days 721 485  
Since 1 June cooling degree days 296 289  
Growing Degree Days 31 (Base 50)    
Moisture  
Dew Point 51 °F    
Average Humidity 35    
Maximum Humidity 54    
Minimum Humidity 16    
Precipitation  
Precipitation 0.00 in 0.13 in 3.72 in (1994)
Month to date precipitation 2.43 3.45  
Year to date precipitation 20.37 26.27  
Snow  
Snow 0.00 in - - ()
Month to date snowfall 0.0  
Since 1 June snowfall 0.0  
Snow Depth 0.00 in    
Sea Level Pressure  
Sea Level Pressure 29.81 in    
Wind  
Wind Speed 11 mph (NNE)    
Max Wind Speed 16 mph    
Max Gust Speed 22 mph    
Visibility 10 miles    
Events      
T = Trace of Precipitation, MM = Missing Value Source: NWS Daily Summary

Daily Weather History Graph

Daily Weather History Graph

Search for Another Location

Airport or City:

Trip Planner

Search our weather history database for the weather conditions in past years. The results will help you decide how hot, cold, wet, or windy it might be!

Date:

Astronomy

Jun. 26, 2012 Rise Set
Actual Time 6:28 AM EDT 8:58 PM EDT
Civil Twilight 5:58 AM EDT 9:28 PM EDT
Nautical Twilight 5:22 AM EDT 10:05 PM EDT
Astronomical Twilight 4:41 AM EDT 10:45 PM EDT
Moon 1:26 PM EDT 12:42 AM EDT
Length of Visible Light 15h 29m
Length of Day
14h 30m
Waxing Crescent, 45% of the Moon is Illuminated
Jun 26
Waxing Crescent
Jun 26
First Quarter
Jul 3
Full
Jul 10
Last Quarter
Jul 19
New

Hourly Weather History & Observations

Time (EDT) Temp. Heat Index Dew Point Humidity Pressure Visibility Wind Dir Wind Speed Gust Speed Precip Events Conditions
12:53 AM 82.0 °F 83.0 °F 62.1 °F 51% 29.76 in 10.0 mi North 11.5 mph - N/A   Clear
1:53 AM 81.0 °F 81.7 °F 61.0 °F 50% 29.77 in 10.0 mi North 13.8 mph - N/A   Clear
2:53 AM 78.1 °F - 61.0 °F 56% 29.76 in 10.0 mi NNE 11.5 mph - N/A   Clear
3:53 AM 77.0 °F - 57.2 °F 50% 29.79 in 10.0 mi NNE 11.5 mph - N/A   Clear
4:53 AM 75.9 °F - 54.0 °F 46% 29.78 in 10.0 mi North 13.8 mph - N/A   Clear
5:53 AM 73.9 °F - 53.1 °F 48% 29.80 in 10.0 mi NE 11.5 mph - N/A   Clear
6:53 AM 73.0 °F - 52.0 °F 48% 29.81 in 10.0 mi NNE 10.4 mph 16.1 mph N/A   Clear
7:53 AM 73.0 °F - 52.0 °F 48% 29.82 in 10.0 mi NNE 10.4 mph 16.1 mph N/A   Partly Cloudy
8:53 AM 73.9 °F - 52.0 °F 46% 29.84 in 10.0 mi NNE 10.4 mph 20.7 mph N/A   Partly Cloudy
9:53 AM 77.0 °F - 52.0 °F 42% 29.86 in 10.0 mi NNE 15.0 mph 20.7 mph N/A   Scattered Clouds
10:53 AM 80.1 °F 79.9 °F 53.1 °F 39% 29.85 in 10.0 mi NE 12.7 mph - N/A   Scattered Clouds
11:53 AM 84.0 °F 82.5 °F 53.1 °F 34% 29.84 in 10.0 mi NNE 9.2 mph 17.3 mph N/A   Scattered Clouds
12:53 PM 84.9 °F 83.2 °F 53.1 °F 33% 29.83 in 10.0 mi North 11.5 mph - N/A   Scattered Clouds
1:53 PM 86.0 °F - 51.1 °F 30% 29.82 in 10.0 mi North 12.7 mph - N/A   Scattered Clouds
2:53 PM 88.0 °F - 48.9 °F 26% 29.79 in 10.0 mi North 12.7 mph 18.4 mph N/A   Scattered Clouds
3:53 PM 89.1 °F - 46.0 °F 22% 29.79 in 10.0 mi North 16.1 mph 20.7 mph N/A   Scattered Clouds
4:53 PM 89.1 °F - 44.1 °F 21% 29.79 in 10.0 mi North 11.5 mph 21.9 mph N/A   Scattered Clouds
5:53 PM 90.0 °F - 37.0 °F 15% 29.79 in 10.0 mi North 10.4 mph 19.6 mph N/A   Scattered Clouds
6:53 PM 89.1 °F - 45.0 °F 22% 29.79 in 10.0 mi North 13.8 mph 18.4 mph N/A   Scattered Clouds
7:53 PM 87.1 °F - 45.0 °F 23% 29.79 in 10.0 mi NE 9.2 mph - N/A   Scattered Clouds
8:53 PM 82.9 °F - 46.0 °F 27% 29.81 in 10.0 mi NE 8.1 mph - N/A   Scattered Clouds
9:53 PM 81.0 °F - 46.9 °F 30% 29.83 in 10.0 mi NNE 8.1 mph - N/A   Scattered Clouds
10:53 PM 78.1 °F - 48.9 °F 36% 29.85 in 10.0 mi NNE 13.8 mph - N/A   Scattered Clouds
11:53 PM 75.9 °F - 46.9 °F 36% 29.87 in 10.0 mi NNE 9.2 mph - N/A   Clear